Change the Weather History Date:

Thursday, October 17, 2013

  Actual Average Record
Temperature  
Mean Temperature 58 °F -  
Max Temperature 64 °F 60 °F 84 °F (1938)
Min Temperature 51 °F 40 °F 25 °F (1937)
Degree Days  
Heating Degree Days 8    
Growing Degree Days 8 (Base 50)    
Moisture  
Dew Point 53 °F    
Average Humidity 82    
Maximum Humidity 100    
Minimum Humidity 59    
Precipitation  
Precipitation 0.00 in - - ()
Sea Level Pressure  
Sea Level Pressure 29.84 in    
Wind  
Wind Speed 5 mph (WSW)    
Max Wind Speed 23 mph    
Max Gust Speed 24 mph    
Visibility 9 miles    
Events Rain    
Averages and records for this station are not official NWS values.
T = Trace of Precipitation, MM = Missing Value Source: NWS Daily Summary

Daily Weather History Graph

Daily Weather History Graph

Search for Another Location

Airport or City:

Trip Planner

Search our weather history database for the weather conditions in past years. The results will help you decide how hot, cold, wet, or windy it might be!

Date:

Astronomy

Oct. 17, 2013 Rise Set
Actual Time 7:25 AM EDT 6:27 PM EDT
Civil Twilight 6:57 AM EDT 6:55 PM EDT
Nautical Twilight 6:25 AM EDT 7:27 PM EDT
Astronomical Twilight 5:53 AM EDT 7:58 PM EDT
Moon 5:40 PM EDT (10/17) 5:54 AM EDT (10/17)
Length of Visible Light 11h 57m
Length of Day
11h 02m
Waxing Gibbous, 98% of the Moon is Illuminated
Oct 17
Waxing Gibbous
Oct 18
Full
Oct 26
Last Quarter
Nov 3
New
Nov 10
First Quarter

Hourly Weather History & Observations

Time (EDT) Temp. Dew Point Humidity Pressure Visibility Wind Dir Wind Speed Gust Speed Precip Events Conditions
12:15 AM 59.0 °F 55.4 °F 88% 29.88 in 10.0 mi WSW 3.5 mph - N/A   Overcast
12:35 AM 59.4 °F 55.8 °F 88% 29.88 in 10.0 mi West 5.8 mph - N/A   Overcast
12:55 AM 59.2 °F 55.9 °F 89% 29.88 in 10.0 mi WSW 5.8 mph - N/A   Overcast
1:15 AM 59.5 °F 56.3 °F 89% 29.88 in 10.0 mi WSW 5.8 mph - N/A   Overcast
1:35 AM 60.3 °F 56.3 °F 87% 29.88 in 10.0 mi WSW 6.9 mph - N/A   Overcast
1:55 AM 59.9 °F 56.5 °F 88% 29.88 in 10.0 mi SW 5.8 mph - N/A   Overcast
2:15 AM 60.4 °F 56.7 °F 87% 29.88 in 10.0 mi SW 3.5 mph - N/A   Overcast
2:35 AM 60.4 °F 56.7 °F 87% 29.88 in 10.0 mi WSW 5.8 mph - N/A   Overcast
2:55 AM 60.8 °F 57.0 °F 87% 29.89 in 10.0 mi WNW 5.8 mph - N/A   Overcast
3:15 AM 59.9 °F 53.6 °F 80% 29.90 in 10.0 mi NW 11.5 mph 18.4 mph N/A   Overcast
3:35 AM 59.2 °F 53.1 °F 80% 29.89 in 10.0 mi NW 6.9 mph - N/A   Mostly Cloudy
3:55 AM 58.6 °F 52.9 °F 81% 29.89 in 10.0 mi Calm Calm - N/A   Mostly Cloudy
4:15 AM 58.5 °F 52.2 °F 80% 29.89 in 10.0 mi North 3.5 mph - N/A   Overcast
4:35 AM 58.5 °F 51.3 °F 77% 29.90 in 10.0 mi Calm Calm - N/A   Overcast
4:55 AM 58.1 °F 51.4 °F 78% 29.90 in 10.0 mi NW 3.5 mph - N/A   Overcast
5:15 AM 58.3 °F 50.5 °F 75% 29.91 in 10.0 mi Calm Calm - N/A   Overcast
5:35 AM 57.6 °F 51.3 °F 79% 29.91 in 10.0 mi Calm Calm - N/A   Overcast
5:53 AM 57.2 °F 50.0 °F 77% 29.91 in 10.0 mi Calm Calm - N/A   Overcast
6:53 AM 57.2 °F 50.0 °F 77% 29.91 in 10.0 mi Calm Calm - N/A   Overcast
7:53 AM 53.6 °F 50.0 °F 88% 29.92 in 10.0 mi Calm Calm - N/A   Mostly Cloudy
8:53 AM 57.2 °F 51.8 °F 82% 29.93 in 10.0 mi Calm Calm - N/A   Overcast
9:53 AM 59.0 °F 48.2 °F 67% 29.92 in 10.0 mi Calm Calm - N/A   Overcast
11:53 AM 64.4 °F 50.0 °F 59% 29.88 in 10.0 mi Calm Calm - N/A   Mostly Cloudy
1:53 PM 64.4 °F 51.8 °F 64% 29.84 in 7.0 mi Variable 4.6 mph - N/A Rain Light Rain
2:53 PM 64.4 °F 53.6 °F 68% 29.80 in 10.0 mi Variable 4.6 mph - N/A   Overcast
3:15 PM 62.6 °F 53.6 °F 72% 29.80 in 5.0 mi Calm Calm - N/A Rain Light Rain
3:53 PM 62.6 °F 57.2 °F 82% 29.78 in 5.0 mi Calm Calm - N/A Rain Light Rain
4:15 PM 60.8 °F 57.2 °F 88% 29.77 in 2.0 mi Calm Calm - N/A Rain Rain
4:53 PM 59.0 °F 59.0 °F 100% 29.72 in 2.0 mi Calm Calm - N/A   Light Drizzle
5:53 PM 60.8 °F 59.0 °F 94% 29.67 in 7.0 mi Calm Calm - N/A   Overcast
6:53 PM 62.6 °F 59.0 °F 88% 29.66 in 7.0 mi South 11.5 mph - N/A   Drizzle
7:53 PM 59.0 °F 53.6 °F 82% 29.73 in 7.0 mi WSW 23.0 mph - N/A   Light Drizzle
8:53 PM 55.4 °F 53.6 °F 94% 29.75 in 10.0 mi SSW 11.5 mph - N/A   Mostly Cloudy
9:35 PM 56.1 °F 52.0 °F 86% 29.78 in 10.0 mi SW 11.5 mph 17.3 mph N/A   Overcast
9:55 PM 55.4 °F 50.9 °F 85% 29.80 in 10.0 mi WSW 16.1 mph 19.6 mph N/A   Overcast
10:15 PM 55.0 °F 50.0 °F 83% 29.81 in 10.0 mi West 16.1 mph 21.9 mph N/A   Overcast
10:35 PM 53.6 °F 50.0 °F 88% 29.82 in 7.0 mi WSW 13.8 mph 20.7 mph N/A   Overcast
10:55 PM 53.1 °F 47.8 °F 82% 29.83 in 10.0 mi West 12.7 mph 24.2 mph N/A   Overcast
11:15 PM 52.0 °F 46.4 °F 81% 29.83 in 10.0 mi West 12.7 mph 19.6 mph N/A   Mostly Cloudy
11:35 PM 51.8 °F 46.4 °F 82% 29.83 in 10.0 mi West 10.4 mph - N/A   Mostly Cloudy
11:55 PM 52.2 °F 45.3 °F 78% 29.83 in 10.0 mi WSW 10.4 mph 16.1 mph N/A   Overcast